STARLINK-36627, 67635

Orbit data source: Space-Track

STARLINK-36627, 67635 is a payload satellite owned by SpaceX/Seattle (US) in LEO that was launched on Fri, 30 Jan 2026 UTC via an FALCON 9 launch vehicle from the Air Force Eastern Test Range (AFETR). Payload-class satellites include a variety of spacecraft equipped with specific instruments for various scientific and technological missions. These include communications satellites like Starlink; space stations such as the ISS; scientific satellites like the Hubble; Earth observation satellites from companies like Planet Labs, Umbra, and HawkEye 360; GPS; miniature CubeSats for education and research; and military/defense satellites.

Loading next visibility...
Identifier
67635, 2026-020U
Orbit
LEO
Country
Flag of USUS
Related business
Manufacturer
SpaceX/Seattle
Mission
Operational spacecraft
Bus & Motor
STARLINK V2MO, Unknown motor
Mass
575 kg wet, ~530 kg dry
Launch date (UTC)
2026-01-30 (2 months ago)
Launch vehicle
FALCON 9
Launch site
Air Force Eastern Test Range (AFETR)
Object type
Payload
Rocket body
Debris
Shape & HBR
Unknown shape, 17.7 m
Radar Cross Section
RCS unknown

Expand to show TLE details & history
Last TLE update: 11 hours ago

TLE from 11 hours ago
0 STARLINK-36627
1 67635U 26020U   26104.57775902  .00011635  00000-0  43190-3 0  9998
2 67635  43.0024 296.9794 0001290 268.1607  91.9097 15.27561295 11606
Epoch: 2026-04-14T13:51Z
TLE epoch observation values (Epoch: 2026-04-14T13:51:58.379Z)
Latitude
-0.00001°
Longitude
-113.76586°
Altitude
482.91 km
Speed
7.626 km/s
True Right ascension
19h 47m 55s
True Declination
0° 00' 00"
Sunlit
Object was in daylight at epoch
Visualization orbit readout
Latitude
Unknown
Longitude
Unknown
Altitude
Unknown
Speed
Unknown
Apparent Right ascension
Unknown
Apparent Declination
Unknown
Sunlit
N/A
Visualization observer readout
Local Sidereal Time
07:05:32
Azimuth
Unknown
Elevation
Unknown
Doppler factor
Unknown
Orbital elements
Apogee altitude
485.935 km
Perigee altitude
484.165 km
Semi-major axis
6,863.187 km
Eccentricity
0.00013
Inclination
43.0024°
RAAN
296.9794°
Arg. of periapsis
268.1607°
True anomaly
91.92447°
Mean anomaly
91.9097°
Eccentric anomaly
91.91709°
Mean motion
3.81728 °/min
Orbital period
94.31 mins
BSTAR
0.0004319
Loading maneuver chart data...
Computing Atmospheric mass density...
Loading historical data...
Loading historical data...
Loading historical data...
Loading historical data...
Loading historical data...
Loading historical data...
Loading historical data...

Documentation

Showing up to 5 results
|